contact:dominique.lefevre@mio.osupytheas.fr, maurice.libes@osupytheas.fr
Project:EMSO Ligure-ouest http://www.emso-fr.org/EMSO-France
Sensor Aquadopp, line 13 Serial AQD14315 
DOI : "https://doi.org/10.17882/74513; https://doi.org/10.17882/83244" 
Title:EMSO Ligure Ouest : Data ligne ALBATROSS capteur AQUADOPP - deploiement 2021
Id,Date,Profondeur,Latitude,Longitude,X_East,Y_North,Z_Up,Amplitude_X,Amplitude_Y,Amplitude_Z,Batterie,SoundSpeed,Heading,Pitch,Roll,Pressure,Temperature,Speed,Direction
, , m, degrees North, degrees East, m.s-1, m.s-1,m.s-1, 1, 1, 1, Volt, m.s-1, degree, degree, degree, dbar, degree_C, m.s-1, degree
13,2022-03-28T22:00:00,2400.0,42.79,6.0312,0.046,-0.058,0.009,79.0,72.0,74.0,12.0,1504.9,146.0,-0.9,-0.1,2394.337,13.34,0.074,141.6
13,2022-03-28T22:30:00,2400.0,42.79,6.0312,0.048,-0.082,-0.009,80.0,69.0,73.0,12.0,1504.9,148.9,-1.0,-0.1,2394.373,13.34,0.095,149.7
13,2022-03-28T23:00:00,2400.0,42.79,6.0312,0.043,-0.073,-0.008,77.0,70.0,73.0,12.0,1504.9,156.0,-1.0,-0.4,2394.329,13.34,0.084,149.5
13,2022-03-28T23:30:00,2400.0,42.79,6.0312,0.039,-0.076,-0.011,77.0,70.0,72.0,12.0,1504.9,165.8,-0.6,0.0,2394.33,13.34,0.085,152.8
13,2022-03-29T00:00:00,2400.0,42.79,6.0312,0.058,-0.046,0.006,76.0,71.0,72.0,12.0,1504.9,149.9,-0.7,-0.7,2394.326,13.34,0.074,128.4
13,2022-03-29T00:30:00,2400.0,42.79,6.0312,0.02,-0.063,0.012,75.0,68.0,69.0,12.0,1504.9,163.9,-0.7,-0.2,2394.394,13.34,0.066,162.4
13,2022-03-29T01:00:00,2400.0,42.79,6.0312,0.083,-0.069,-0.042,76.0,67.0,70.0,12.0,1504.9,148.6,-0.8,-0.6,2394.359,13.34,0.107,129.7
13,2022-03-29T01:30:00,2400.0,42.79,6.0312,0.077,-0.066,0.018,76.0,69.0,69.0,12.0,1504.9,152.9,-0.7,-0.4,2394.331,13.34,0.101,130.6
13,2022-03-29T02:00:00,2400.0,42.79,6.0312,0.06,-0.067,0.022,79.0,68.0,69.0,12.0,1504.9,155.3,-1.1,-0.4,2394.368,13.34,0.089,138.2
13,2022-03-29T02:30:00,2400.0,42.79,6.0312,0.029,-0.063,-0.013,76.0,70.0,72.0,12.0,1504.9,164.5,-0.7,-0.7,2394.421,13.34,0.069,155.3
13,2022-03-29T03:00:00,2400.0,42.79,6.0312,0.001,-0.074,-0.019,79.0,70.0,73.0,12.0,1504.9,178.3,-0.3,-0.3,2394.461,13.34,0.074,179.2
13,2022-03-29T03:30:00,2400.0,42.79,6.0312,0.023,-0.065,0.011,78.0,71.0,71.0,12.0,1504.9,168.0,-1.1,-0.4,2394.471,13.34,0.068,160.5
13,2022-03-29T04:00:00,2400.0,42.79,6.0312,0.045,-0.066,-0.015,79.0,71.0,73.0,12.0,1504.9,157.0,-1.0,-0.6,2394.465,13.34,0.079,145.7
13,2022-03-29T04:30:00,2400.0,42.79,6.0312,0.059,-0.097,-0.002,77.0,70.0,71.0,12.0,1504.9,172.3,-0.4,-0.6,2394.543,13.34,0.113,148.7
13,2022-03-29T05:00:00,2400.0,42.79,6.0312,0.059,-0.068,-0.007,76.0,71.0,74.0,12.0,1504.9,170.0,-0.7,-0.3,2394.482,13.34,0.09,139.1
13,2022-03-29T05:30:00,2400.0,42.79,6.0312,0.029,-0.081,0.018,82.0,73.0,72.0,12.0,1504.9,172.5,-0.4,-0.5,2394.584,13.34,0.086,160.3
13,2022-03-29T06:00:00,2400.0,42.79,6.0312,0.037,-0.059,-0.02,80.0,75.0,76.0,12.0,1504.9,157.0,-0.7,-0.3,2394.515,13.34,0.069,147.9
13,2022-03-29T06:30:00,2400.0,42.79,6.0312,0.045,-0.054,-0.02,80.0,72.0,75.0,12.0,1504.9,156.5,-0.6,-0.2,2394.515,13.34,0.07,140.2
13,2022-03-29T07:00:00,2400.0,42.79,6.0312,0.034,-0.057,-0.018,78.0,73.0,74.0,12.0,1504.9,147.9,-0.2,-0.3,2394.469,13.34,0.066,149.2
13,2022-03-29T07:30:00,2400.0,42.79,6.0312,0.022,-0.046,-0.014,81.0,72.0,77.0,12.0,1504.9,167.1,-0.6,-0.4,2394.494,13.34,0.05,154.4
13,2022-03-29T08:00:00,2400.0,42.79,6.0312,-0.001,-0.045,-0.034,78.0,70.0,74.0,12.0,1504.9,177.1,-0.2,-0.4,2394.484,13.34,0.045,181.3
13,2022-03-29T08:30:00,2400.0,42.79,6.0312,0.037,-0.06,-0.033,79.0,73.0,75.0,12.0,1504.9,151.9,-0.4,-0.4,2394.466,13.34,0.07,148.3
13,2022-03-29T09:00:00,2400.0,42.79,6.0312,0.003,-0.082,-0.029,79.0,73.0,74.0,12.0,1504.9,162.6,-0.5,-0.3,2394.451,13.34,0.082,177.9
13,2022-03-29T09:30:00,2400.0,42.79,6.0312,0.03,-0.066,-0.02,80.0,72.0,72.0,12.0,1504.9,150.8,-0.4,-0.3,2394.42,13.34,0.072,155.6
13,2022-03-29T10:00:00,2400.0,42.79,6.0312,-0.005,-0.06,-0.009,78.0,69.0,73.0,12.0,1504.9,179.0,-0.3,-0.3,2394.383,13.34,0.06,184.8
13,2022-03-29T10:30:00,2400.0,42.79,6.0312,-0.012,-0.043,-0.022,79.0,70.0,71.0,12.0,1504.9,178.7,-0.4,-0.3,2394.353,13.34,0.044,195.6
13,2022-03-29T11:00:00,2400.0,42.79,6.0312,0.027,-0.045,0.002,76.0,70.0,70.0,12.0,1504.9,142.1,-0.3,-0.3,2394.356,13.34,0.052,149.0
13,2022-03-29T11:30:00,2400.0,42.79,6.0312,-0.008,-0.049,-0.05,77.0,69.0,71.0,12.0,1504.9,167.8,-0.3,-0.3,2394.321,13.34,0.049,189.3
13,2022-03-29T12:00:00,2400.0,42.79,6.0312,0.014,-0.062,0.033,79.0,70.0,71.0,12.0,1504.9,156.4,-0.6,-0.4,2394.306,13.34,0.063,167.3
13,2022-03-29T12:30:00,2400.0,42.79,6.0312,0.0,-0.054,-0.02,78.0,70.0,71.0,12.0,1504.9,171.9,-0.1,-0.3,2394.305,13.34,0.053,180.0
13,2022-03-29T13:00:00,2400.0,42.79,6.0312,0.019,-0.07,-0.001,76.0,70.0,72.0,12.0,1504.9,155.5,-0.3,-0.4,2394.328,13.34,0.072,164.8
13,2022-03-29T13:30:00,2400.0,42.79,6.0312,-0.004,-0.058,-0.022,78.0,71.0,75.0,12.0,1504.9,176.7,-0.2,-0.5,2394.306,13.34,0.058,183.9
13,2022-03-29T14:00:00,2400.0,42.79,6.0312,0.016,-0.065,-0.007,78.0,71.0,71.0,12.0,1504.9,153.5,-0.2,-0.3,2394.294,13.34,0.066,166.2
13,2022-03-29T14:30:00,2400.0,42.79,6.0312,-0.01,-0.057,-0.008,77.0,69.0,70.0,12.0,1504.9,162.7,-0.2,-0.3,2394.347,13.34,0.057,189.9
13,2022-03-29T15:00:00,2400.0,42.79,6.0312,0.01,-0.069,-0.019,77.0,67.0,71.0,12.0,1504.9,175.9,-0.3,-0.6,2394.348,13.34,0.069,171.8
13,2022-03-29T15:30:00,2400.0,42.79,6.0312,0.017,-0.056,-0.019,79.0,68.0,71.0,12.0,1504.9,162.5,-0.3,-0.4,2394.367,13.34,0.058,163.1
13,2022-03-29T16:00:00,2400.0,42.79,6.0312,0.006,-0.066,-0.003,78.0,70.0,73.0,12.0,1504.9,182.1,-0.3,-0.5,2394.384,13.34,0.066,174.8
13,2022-03-29T16:30:00,2400.0,42.79,6.0312,0.021,-0.082,-0.001,76.0,72.0,73.0,12.0,1504.9,158.3,-0.7,-0.5,2394.373,13.34,0.084,165.6
13,2022-03-29T17:00:00,2400.0,42.79,6.0312,-0.004,-0.079,0.008,77.0,69.0,73.0,12.0,1504.9,178.1,-0.2,-0.4,2394.39,13.34,0.079,182.9
13,2022-03-29T17:30:00,2400.0,42.79,6.0312,-0.022,-0.051,-0.044,80.0,73.0,71.0,12.0,1504.9,179.6,-0.2,-0.2,2394.426,13.34,0.055,203.3
13,2022-03-29T18:00:00,2400.0,42.79,6.0312,0.052,-0.046,0.004,80.0,70.0,73.0,12.0,1504.9,147.9,-0.4,-0.4,2394.421,13.34,0.069,131.5
13,2022-03-29T18:30:00,2400.0,42.79,6.0312,0.043,-0.044,-0.005,78.0,69.0,73.0,12.0,1504.9,159.4,-0.4,-0.2,2394.44,13.34,0.061,135.7
13,2022-03-29T19:00:00,2400.0,42.79,6.0312,0.0,-0.062,0.0,77.0,68.0,72.0,12.0,1504.9,171.8,-0.7,-0.4,2394.409,13.34,0.061,180.0
13,2022-03-29T19:30:00,2400.0,42.79,6.0312,0.008,-0.052,0.018,74.0,68.0,70.0,12.0,1504.9,166.5,-0.2,-0.4,2394.432,13.34,0.052,171.3
13,2022-03-29T20:00:00,2400.0,42.79,6.0312,0.019,-0.034,0.023,77.0,66.0,70.0,12.0,1504.9,163.6,-0.4,-0.3,2394.386,13.34,0.038,150.8
13,2022-03-29T20:30:00,2400.0,42.79,6.0312,0.015,-0.054,-0.055,76.0,69.0,70.0,12.0,1504.9,153.4,-0.6,-0.4,2394.348,13.34,0.056,164.5
13,2022-03-29T21:00:00,2400.0,42.79,6.0312,0.009,-0.054,0.003,77.0,71.0,72.0,12.0,1504.9,167.6,-0.2,-0.5,2394.362,13.34,0.054,170.5
13,2022-03-29T21:30:00,2400.0,42.79,6.0312,0.012,-0.047,-0.019,78.0,72.0,75.0,12.0,1504.9,159.7,-0.3,-0.4,2394.375,13.34,0.048,165.7
